STARLINK-4257, 53184

Orbit data source: Space-Track

STARLINK-4257, 53184 is a payload satellite owned by SpaceX/Seattle (US) in LEO that was launched on Sun, 17 Jul 2022 UTC via an FALCON 9 launch vehicle from the Air Force Eastern Test Range (AFETR). Payload-class satellites include a variety of spacecraft equipped with specific instruments for various scientific and technological missions. These include communications satellites like Starlink; space stations such as the ISS; scientific satellites like the Hubble; Earth observation satellites from companies like Planet Labs, Umbra, and HawkEye 360; GPS; miniature CubeSats for education and research; and military/defense satellites.

Loading next visibility...
Identifier
53184, 2022-083BE
Orbit
LEO
Country
Flag of USUS
Related business
Manufacturer
SpaceX/Seattle
Mission
Operational Commercial Communications
Bus & Motor
STARLINK, Unknown motor
Mass
297 kg wet, ~275 kg dry
Launch date (UTC)
2022-07-17 (4 years ago)
Launch vehicle
FALCON 9
Launch site
Air Force Eastern Test Range (AFETR)
Object type
Payload
Rocket body
Debris
Shape & HBR
Box + 1 Pan, 10.1 m
Radar Cross Section
13.562 m², Large (>1 m²)

Expand to show TLE details & history
Last TLE update: 3 days ago

TLE from 3 days ago
0 STARLINK-4257
1 53184U 22083BE  26170.88028617  .00000061  00000-0  21944-4 0  9993
2 53184  53.1594  24.8405 0001290  88.1401 271.9738 15.08832011217351
Epoch: 2026-06-19T21:07Z
TLE epoch observation values (Epoch: 2026-06-19T21:07:36.725Z)
Latitude
-0.00002°
Longitude
159.83455°
Altitude
540.628 km
Speed
7.593 km/s
True Right ascension
01h 39m 21s
True Declination
0° 00' 00"
Sunlit
Object was in daylight at epoch
Visualization orbit readout
Latitude
Unknown
Longitude
Unknown
Altitude
Unknown
Speed
Unknown
Apparent Right ascension
Unknown
Apparent Declination
Unknown
Sunlit
N/A
Visualization observer readout
Local Sidereal Time
00:36:33
Azimuth
Unknown
Elevation
Unknown
Doppler factor
Unknown
Orbital elements
Apogee altitude
540.914 km
Perigee altitude
539.13 km
Semi-major axis
6,918.159 km
Eccentricity
0.00013
Inclination
53.1594°
RAAN
24.8405°
Arg. of periapsis
88.1401°
True anomaly
271.95903°
Mean anomaly
271.9738°
Eccentric anomaly
271.96641°
Mean motion
3.77188 °/min
Orbital period
95.44 mins
BSTAR
0.000021944
Loading maneuver chart data...
Computing Atmospheric mass density...
Loading historical data...
Loading historical data...
Loading historical data...
Loading historical data...
Loading historical data...
Loading historical data...
Loading historical data...

Documentation

Showing up to 5 results
|